Location: Newark
(12.4436°N, 0.6167°W)
Time: 22:49:56
(UTC+00:00)

Vanguard 2 - Pass Details

Date: 16 December 2019
Orbit: 553 x 2938 km, 32.9° (Epoch: 17 January)

Event Time Altitude Azimuth Distance (km) Brightness Sun altitude
Rises 21:02:55 0° 235° (SW) 3,617 11.7 -47.1°
Reaches altitude 10° 21:05:03 10° 234° (SW) 2,888 11.0 -47.6°
Enters shadow 21:07:04 23° 233° (SW) 2,263 10.2 -48.0°
Maximum altitude 21:12:18 85° 146° (SE) 1,507 - -49.2°
Drops below altitude 10° 21:24:56 10° 59° (ENE) 4,804 - -52.1°
Sets 21:29:31 0° 59° (ENE) 6,140 - -53.1°
